Flag for Albania Weather past 2 weeks in Tirana, Albania

Now
70 °F

Passing clouds.


Feels Like: 70 °F
Forecast: 71 / 95 °F
Wind: 3 mph from South

Location: Tirana Airport

Current Time: Aug 3, 2015 at 7:08:16 AM

Latest Report: Aug 3, 2015 at 6:20 AM


Visibility: N/A

Pressure: 29.95 "Hg

Humidity: 78%

Dew point: 63 °F

Location of TiranaLocation

Historic Weather in Tirana — Graph

°F

Tirana temperature yesterday

Maximum temperature yesterday: 97 °F (at 12:20 PM)
Minimum temperature yesterday: 73 °F (at 5:20 AM)
Average temperature yesterday: 85 °F

Past Weeks' High & Low Weather Summary

 TemperatureHumidityPressure
High104 °F (Jul 21, 2:50 PM)94% (Aug 2, 1:50 AM)30.01 "Hg (Aug 2, 1:50 AM)
Low68 °F (Jul 27, 4:20 AM)22% (Jul 21, 3:20 PM)29.71 "Hg (Jul 27, 5:20 PM)
Average84 °F59%29.83 "Hg
* Reported Jul 19 5:20 AM — Aug 3 5:50 AM, Tirana, Weather by CustomWeather, © 2015

Note: Actual official high and low records may vary slightly from our data, if they occured in-between our weather recording intervals... More about our weather records

Advertising

Tirana weather history for previous 24 hours

 ConditionsComfort  
Time TempWeatherWind HumidityBarometerVisibility
5:50 AM
Mon, Aug 3
72 °FClear.2 mph73%29.95 "Hg10 mi
5:20 AM70 °FClear.2 mph78%29.95 "Hg10 mi
4:50 AM70 °FClear.No wind83%29.95 "Hg10 mi
4:20 AM70 °FPassing clouds.2 mph78%29.95 "HgN/A
3:50 AM72 °FPassing clouds.2 mph73%29.95 "HgN/A
3:20 AM70 °FPassing clouds.No wind83%29.95 "HgN/A
2:50 AM72 °FClear.No wind78%29.95 "Hg10 mi
2:20 AM73 °FClear.2 mph74%29.95 "Hg10 mi
1:50 AM73 °FClear.3 mph78%29.95 "Hg10 mi
1:20 AM73 °FClear.3 mph78%29.95 "Hg10 mi
12:50 AM75 °FClear.2 mph74%29.95 "Hg10 mi
12:20 AM77 °FClear.2 mph69%29.95 "Hg10 mi
11:20 PM
Sun, Aug 2
77 °FClear.3 mph74%29.98 "Hg10 mi
10:50 PM75 °FClear.3 mph74%29.98 "Hg10 mi
10:20 PM77 °FClear.3 mph74%29.98 "Hg10 mi
9:50 PM77 °FClear.No wind74%29.98 "Hg10 mi
9:20 PM79 °FClear.No wind70%29.98 "Hg10 mi
8:50 PM79 °FPassing clouds.3 mph70%29.95 "HgN/A
8:20 PM81 °FSunny.3 mph62%29.95 "Hg10 mi
7:50 PM82 °FSunny.No wind58%29.98 "Hg10 mi
7:20 PM84 °FPassing clouds.6 mph55%29.98 "HgN/A
6:50 PM88 °FPassing clouds.8 mph52%29.98 "HgN/A
6:20 PM90 °FSunny.12 mph49%29.98 "Hg10 mi
5:50 PM93 °FSunny.15 mph44%29.98 "Hg10 mi
5:20 PM95 °FSunny.13 mph41%29.98 "Hg10 mi
4:50 PM93 °FClear.10 mph41%29.95 "HgN/A
4:20 PM97 °FPassing clouds.9 mph34%29.95 "HgN/A
3:50 PM97 °FPassing clouds.12 mph34%29.95 "HgN/A
3:20 PM97 °FPassing clouds.13 mph34%29.98 "HgN/A
2:50 PM97 °FPassing clouds.10 mph32%29.95 "HgN/A
2:20 PM97 °FPassing clouds.10 mph34%29.98 "HgN/A
1:50 PM97 °FPassing clouds.10 mph34%29.98 "HgN/A
1:20 PM97 °FPassing clouds.8 mph39%29.98 "HgN/A
12:50 PM97 °FPassing clouds.2 mph30%29.98 "HgN/A
12:20 PM97 °FSunny.No wind34%29.98 "Hg10 mi
11:50 AM93 °FSunny.3 mph39%29.98 "Hg10 mi
11:20 AM93 °FSunny.2 mph41%30.01 "Hg10 mi
10:50 AM93 °FSunny.No wind44%30.01 "Hg10 mi
10:20 AM91 °FSunny.3 mph41%30.01 "Hg10 mi
9:50 AM90 °FSunny.2 mph52%30.01 "Hg10 mi
9:20 AM86 °FSunny.2 mph55%30.01 "Hg10 mi
8:50 AM84 °FSunny.2 mph55%30.01 "Hg10 mi
8:20 AM81 °FSunny.No wind66%29.98 "Hg10 mi
7:50 AM81 °FSunny.2 mph70%29.98 "Hg10 mi
7:20 AM77 °FSunny.3 mph79%29.98 "Hg10 mi
Weather by CustomWeather, © 2015

See weather overviewHow to use our weather pages